Погода в Фарне

Россия / Республика Северная Осетия — Алания     43°10′50″N   44°30′03″E
темп.,
°C
ветер,
м/с
пор.,
м/с
влажн.,
%
обл.,
%
осадки,
мм/ч
давл.,
гПа
погр.,
м
15 мая, сб
сб1500:00+17ююв11760 0.0 101111
03:00+16юв11630 0.0 101211
06:00+17ю22635 0.0 101328
09:00+24зсз12465 0.0 1012308
12:00+27с33493 0.0 10121141
15:00+27сз335340 0.0 10121746
18:00+21вюв017299 0.9 101346
21:00+18ююв227665 1.3 101312
16 мая, вс
вс1600:00+17юв1176100 0.0 101211
03:00+15вюв116978 0.0 101111
06:00+17юв11704 0.0 101133
09:00+23всв12510 0.0 1009457
12:00+27всв33465 0.0 10081035
15:00+27всв33475 0.0 10061196
18:00+25св24645 0.0 100584
21:00+19ююв116511 0.0 100611
17 мая, пн
пн1700:00+17юв225464 0.0 100613
03:00+16юв224918 0.0 100512
06:00+17вюв22555 0.0 100526
09:00+25всв12405 0.0 1004313
12:00+29св32390 0.0 1004720
15:00+29с2241100 0.0 10041239
18:00+23зюз6965100 0.1 1006231
21:00+15зсз3688100 2.3 1009139
18 мая, вт
вт1800:00+15ююв118662 0.0 100811
03:00+14з2391100 0.0 101053
06:00+15зюз2494100 0.4 1012277
09:00+16зюз2491100 1.4 1013308
12:00+17з1280100 0.9 1014610
15:00+20з236782 1.3 10131170
18:00+18зсз117797 0.8 101413
21:00+16юз228595 1.4 101519
19 мая, ср
ср1900:00+14ю118897 0.0 101511
03:00+13юв11895 0.0 101611
06:00+15ююв11850 0.0 101757
09:00+20в22665 0.0 1015695
12:00+24всв34530 0.0 10141384
15:00+25всв45514 0.0 10131469
18:00+22всв476696 0.0 1013233
21:00+17в34730 0.0 101359